Location: Grand Rapids
(42.9630°N, 85.6680°W)
Time: 02:54:42
(UTC-04:00)

A-11 Canister half - Pass Details

Date: 01 June 2024
Orbit: 1524 x 1684 km, 47.3° (Epoch: 21 June)

Event Time Altitude Azimuth Distance (km) Brightness Sun altitude
Rises 03:40:58 0° 294° (WNW) 4,763 11.5 -19.3°
Reaches altitude 10° 03:44:27 10° 285° (WNW) 3,799 10.9 -18.9°
Maximum altitude 03:52:29 31° 228° (SW) 2,563 9.6 -18.2°
Drops below altitude 10° 04:00:44 10° 171° (S) 3,890 10.7 -17.4°
Sets 04:04:23 0° 162° (SSE) 4,892 11.3 -17.0°
